• In Belarus
  • List of Countries
  • For 7 days
  • Water Temperature
  • Satellite Maps
  • Weather Map
  • Weather Widgets
  • user-avatar
    Login

    Hourly Weather Konstantyna

    Today, 13 December, Wednesday

    Time Temperature Precipitation Wind Pressure Humidity
    00:00 +10°C° 0 mm 1 mps 712 mmHg 80%
    01:00 +10°C° 0 mm 1 mps 712 mmHg 83%
    02:00 +10°C° 0 mm 1 mps 712 mmHg 86%
    03:00 +10°C° 0 mm 1 mps 712 mmHg 88%
    04:00 +9°C° 0 mm 1 mps 713 mmHg 90%
    05:00 +9°C° 0 mm 1 mps 713 mmHg 91%
    06:00 +9°C° 0 mm 1 mps 713 mmHg 93%
    07:00 +10°C° 0 mm 1 mps 714 mmHg 89%
    08:00 +10°C° 0 mm 1 mps 714 mmHg 84%
    09:00 +11°C° 0 mm 1 mps 715 mmHg 80%
    10:00 +12°C° 0 mm 2 mps 715 mmHg 75%
    11:00 +12°C° 0 mm 2 mps 715 mmHg 70%
    12:00 +13°C° 0 mm 2 mps 715 mmHg 65%
    13:00 +13°C° 0.1 mm 2 mps 715 mmHg 66%
    14:00 +13°C° 0.1 mm 2 mps 715 mmHg 67%
    15:00 +13°C° 0.1 mm 2 mps 715 mmHg 68%
    16:00 +12°C° 0 mm 2 mps 715 mmHg 74%
    17:00 +10°C° 0 mm 2 mps 715 mmHg 80%
    18:00 +10°C° 0 mm 1 mps 715 mmHg 86%
    19:00 +9°C° 0 mm 1 mps 715 mmHg 89%
    20:00 +8°C° 0 mm 1 mps 716 mmHg 91%
    21:00 +8°C° 0 mm 1 mps 716 mmHg 93%
    22:00 +8°C° 0 mm 1 mps 716 mmHg 93%
    23:00 +7°C° 0 mm 1 mps 715 mmHg 93%

    Tomorrow, 14 December, Thursday

    Time Temperature Precipitation Wind Pressure Humidity
    00:00 +7°C° 0 mm 1 mps 715 mmHg 93%
    01:00 +7°C° 0 mm 1 mps 715 mmHg 92%
    02:00 +7°C° 0 mm 1 mps 715 mmHg 92%
    03:00 +7°C° 0 mm 1 mps 714 mmHg 91%
    04:00 +7°C° 0 mm 1 mps 714 mmHg 90%
    05:00 +6°C° 0 mm 2 mps 714 mmHg 89%
    06:00 +5°C° 0 mm 2 mps 714 mmHg 87%
    07:00 +7°C° 0 mm 2 mps 715 mmHg 79%
    08:00 +9°C° 0 mm 2 mps 715 mmHg 70%
    09:00 +10°C° 0 mm 2 mps 715 mmHg 62%
    10:00 +13°C° 0 mm 2 mps 715 mmHg 54%
    11:00 +14°C° 0 mm 2 mps 715 mmHg 46%
    12:00 +16°C° 0 mm 2 mps 715 mmHg 38%
    13:00 +16°C° 0 mm 2 mps 714 mmHg 39%
    14:00 +16°C° 0 mm 2 mps 714 mmHg 40%
    15:00 +16°C° 0 mm 2 mps 713 mmHg 42%
    16:00 +15°C° 0 mm 2 mps 713 mmHg 46%
    17:00 +13°C° 0 mm 2 mps 712 mmHg 50%
    18:00 +10°C° 0 mm 2 mps 712 mmHg 54%
    19:00 +10°C° 0 mm 2 mps 712 mmHg 56%
    20:00 +10°C° 0 mm 2 mps 712 mmHg 57%
    21:00 +9°C° 0 mm 2 mps 712 mmHg 59%
    22:00 +9°C° 0 mm 3 mps 712 mmHg 59%
    23:00 +9°C° 0 mm 3 mps 711 mmHg 60%

    Day after tomorrow, 15 December, Friday

    Time Temperature Precipitation Wind Pressure Humidity
    00:00 +9°C° 0 mm 3 mps 711 mmHg 60%
    01:00 +8°C° 0 mm 3 mps 710 mmHg 59%
    02:00 +8°C° 0 mm 3 mps 710 mmHg 58%
    03:00 +8°C° 0 mm 3 mps 709 mmHg 58%
    04:00 +8°C° 0 mm 3 mps 709 mmHg 57%
    05:00 +8°C° 0 mm 3 mps 709 mmHg 57%
    06:00 +8°C° 0 mm 3 mps 709 mmHg 56%
    07:00 +9°C° 0 mm 3 mps 709 mmHg 52%
    08:00 +11°C° 0 mm 3 mps 709 mmHg 48%
    09:00 +13°C° 0 mm 3 mps 709 mmHg 44%
    10:00 +15°C° 0 mm 5 mps 708 mmHg 38%
    11:00 +16°C° 0 mm 6 mps 708 mmHg 33%
    12:00 +18°C° 0 mm 7 mps 708 mmHg 28%
    13:00 +19°C° 0 mm 6 mps 707 mmHg 30%
    14:00 +17°C° 0 mm 5 mps 707 mmHg 33%
    15:00 +18°C° 0 mm 4 mps 706 mmHg 36%
    16:00 +16°C° 0 mm 3 mps 706 mmHg 40%
    17:00 +14°C° 0 mm 2 mps 706 mmHg 44%
    18:00 +13°C° 0 mm 2 mps 706 mmHg 47%
    19:00 +12°C° 0 mm 2 mps 706 mmHg 49%
    20:00 +12°C° 0 mm 1 mps 706 mmHg 51%
    21:00 +12°C° 0 mm 1 mps 706 mmHg 53%
    22:00 +11°C° 0 mm 1 mps 706 mmHg 54%
    23:00 +11°C° 0 mm 1 mps 706 mmHg 55%

    16 December, Saturday

    Time Temperature Precipitation Wind Pressure Humidity
    00:00 +11°C° 0 mm 1 mps 705 mmHg 56%
    01:00 +11°C° 0 mm 1 mps 705 mmHg 57%
    02:00 +11°C° 0 mm 1 mps 705 mmHg 58%
    03:00 +10°C° 0 mm 1 mps 704 mmHg 60%
    04:00 +9°C° 0.3 mm 2 mps 704 mmHg 64%
    05:00 +9°C° 0.3 mm 2 mps 705 mmHg 68%
    06:00 +8°C° 0.3 mm 2 mps 705 mmHg 73%
    07:00 +8°C° 0.5 mm 3 mps 705 mmHg 78%
    08:00 +8°C° 0.5 mm 3 mps 706 mmHg 83%
    09:00 +8°C° 0.5 mm 3 mps 707 mmHg 88%
    10:00 +8°C° 0.3 mm 3 mps 707 mmHg 86%
    11:00 +8°C° 0.3 mm 3 mps 707 mmHg 83%
    12:00 +8°C° 0.3 mm 2 mps 708 mmHg 81%
    13:00 +8°C° 0.1 mm 2 mps 708 mmHg 79%
    14:00 +8°C° 0.1 mm 2 mps 708 mmHg 77%
    15:00 +9°C° 0.1 mm 2 mps 708 mmHg 75%
    16:00 +9°C° 0 mm 1 mps 709 mmHg 79%
    17:00 +8°C° 0 mm 1 mps 709 mmHg 82%
    18:00 +6°C° 0 mm 0 mps 709 mmHg 86%
    19:00 +7°C° 0 mm 1 mps 709 mmHg 87%
    20:00 +6°C° 0 mm 1 mps 710 mmHg 87%
    21:00 +6°C° 0 mm 1 mps 710 mmHg 88%
    22:00 +6°C° 0 mm 1 mps 710 mmHg 88%
    23:00 +6°C° 0 mm 1 mps 710 mmHg 88%

    17 December, Sunday

    Time Temperature Precipitation Wind Pressure Humidity
    00:00 +6°C° 0 mm 1 mps 710 mmHg 88%
    01:00 +6°C° 0 mm 1 mps 710 mmHg 88%
    02:00 +5°C° 0 mm 1 mps 710 mmHg 88%
    03:00 +5°C° 0 mm 1 mps 710 mmHg 88%
    04:00 +6°C° 0.1 mm 1 mps 710 mmHg 87%
    05:00 +6°C° 0.1 mm 1 mps 710 mmHg 87%
    06:00 +6°C° 0.1 mm 1 mps 710 mmHg 86%
    07:00 +7°C° 0.2 mm 1 mps 711 mmHg 84%
    08:00 +7°C° 0.2 mm 1 mps 711 mmHg 82%
    09:00 +8°C° 0.2 mm 1 mps 712 mmHg 81%
    10:00 +8°C° 0.3 mm 1 mps 712 mmHg 78%
    11:00 +9°C° 0.3 mm 1 mps 712 mmHg 76%
    12:00 +10°C° 0.3 mm 1 mps 712 mmHg 73%
    13:00 +8°C° 0.3 mm 2 mps 712 mmHg 74%
    14:00 +8°C° 0.3 mm 2 mps 712 mmHg 76%
    15:00 +8°C° 0.3 mm 3 mps 712 mmHg 77%
    16:00 +7°C° 0.3 mm 2 mps 712 mmHg 82%
    17:00 +7°C° 0.3 mm 2 mps 712 mmHg 86%
    18:00 +6°C° 0.3 mm 2 mps 713 mmHg 91%
    19:00 +6°C° 0.3 mm 2 mps 713 mmHg 90%
    20:00 +6°C° 0.3 mm 2 mps 714 mmHg 90%
    21:00 +6°C° 0.3 mm 2 mps 714 mmHg 90%
    22:00 +5°C° 0.1 mm 2 mps 714 mmHg 89%
    23:00 +5°C° 0.1 mm 2 mps 714 mmHg 89%

    18 December, Monday

    Time Temperature Precipitation Wind Pressure Humidity
    00:00 +3°C° 0.1 mm 3 mps 714 mmHg 89%
    01:00 +4°C° 0.1 mm 2 mps 714 mmHg 89%
    02:00 +4°C° 0.1 mm 2 mps 714 mmHg 90%
    03:00 +3°C° 0.1 mm 2 mps 714 mmHg 90%
    04:00 +3°C° 0.1 mm 2 mps 714 mmHg 91%
    05:00 +3°C° 0.1 mm 2 mps 715 mmHg 91%
    06:00 +3°C° 0.1 mm 2 mps 715 mmHg 92%
    07:00 +4°C° 0.1 mm 2 mps 715 mmHg 88%
    08:00 +5°C° 0.1 mm 2 mps 716 mmHg 83%
    09:00 +5°C° 0.1 mm 3 mps 716 mmHg 79%
    10:00 +7°C° 0.1 mm 3 mps 716 mmHg 74%
    11:00 +6°C° 0.1 mm 4 mps 716 mmHg 69%
    12:00 +7°C° 0.1 mm 4 mps 716 mmHg 64%
    13:00 +7°C° 0.1 mm 4 mps 716 mmHg 65%
    14:00 +7°C° 0.1 mm 4 mps 716 mmHg 65%
    15:00 +6°C° 0.1 mm 4 mps 716 mmHg 65%
    16:00 +5°C° 0 mm 3 mps 716 mmHg 71%
    17:00 +4°C° 0 mm 3 mps 716 mmHg 77%
    18:00 +4°C° 0 mm 2 mps 716 mmHg 83%
    19:00 +5°C° 0 mm 1 mps 716 mmHg 84%
    20:00 +5°C° 0 mm 1 mps 716 mmHg 86%
    21:00 +5°C° 0 mm 1 mps 716 mmHg 87%
    22:00 +5°C° 0.1 mm 1 mps 716 mmHg 87%
    23:00 +5°C° 0.1 mm 1 mps 716 mmHg 87%
    Show more